Flag for Germany Weather past 2 weeks in Radolfzell am Bodensee, Baden-Württemberg, Germany

Now
16 °F

Low clouds.


Feels Like: 16 °F
Forecast: 18 / 29 °F
Wind: 2 mph from Northwest

Location: Konstanz

Current Time: Dec 29, 2014 at 10:41:36 AM

Latest Report: Dec 29, 2014 at 10:00 AM


Visibility: 6 mi

Pressure: 30.61 "Hg

Humidity: 86%

Dew point: 13 °F

Location of Radolfzell am BodenseeLocation

Historic Weather in Radolfzell am Bodensee — Graph

°F

Radolfzell am Bodensee temperature yesterday

Maximum temperature yesterday: 34 °F (at 12:00 AM)
Minimum temperature yesterday: 19 °F (at 11:00 PM)
Average temperature yesterday: 29 °F

Past Weeks' High & Low Weather Summary

 TemperatureHumidityPressure
High54 °F (Dec 19, 2:00 PM)100% (Dec 16, 3:00 AM)30.63 "Hg (Dec 16, 3:00 AM)
Low14 °F (Dec 29, 8:00 AM)52% (Dec 23, 6:00 PM)29.50 "Hg (Dec 27, 6:00 PM)
Average40 °F82%30.21 "Hg
* Reported Dec 14 9:00 AM — Dec 29 9:00 AM, Radolfzell am Bodensee, Weather by CustomWeather, © 2014

Note: Actual official high and low records may vary slightly from our data, if they occured in-between our weather recording intervals... More about our weather records

Advertising

Radolfzell am Bodensee weather history for previous 24 hours

 ConditionsComfort  
Time TempWeatherWind HumidityBarometerVisibility
9:00 AM
Dec 29
15 °FFog.2 mph88%30.63 "Hg4 mi
8:00 AM14 °FFog.2 mph89%30.63 "Hg4 mi
7:00 AM14 °FFog.2 mph88%30.63 "Hg3 mi
6:00 AM14 °FFog.2 mph87%30.62 "Hg4 mi
5:00 AM15 °FClear.2 mph87%30.62 "Hg9 mi
4:00 AM16 °FClear.2 mph80%30.61 "Hg11 mi
3:00 AM17 °FClear.1 mph79%30.58 "Hg11 mi
2:00 AM19 °FOvercast.1 mph74%30.55 "Hg11 mi
1:00 AM18 °FOvercast.1 mph74%30.55 "Hg11 mi
12:00 AM18 °FPassing clouds.2 mph73%30.54 "Hg11 mi
11:00 PM
Dec 28
19 °FPassing clouds.1 mph71%30.51 "Hg12 mi
10:00 PM20 °FPassing clouds.1 mph68%30.47 "Hg13 mi
9:00 PM22 °FOvercast.6 mph69%30.42 "Hg13 mi
8:00 PM24 °FOvercast.6 mph70%30.38 "Hg12 mi
7:00 PM25 °FOvercast.6 mph74%30.32 "Hg11 mi
6:00 PM27 °FOvercast.6 mph77%30.25 "Hg10 mi
5:00 PM27 °FLight snow. Overcast.7 mph80%30.21 "Hg9 mi
4:00 PM28 °FLight snow. Low clouds.5 mph80%30.15 "Hg6 mi
3:00 PM28 °FLight snow. Ice fog.2 mph86%30.09 "Hg2 mi
2:00 PM28 °FLight snow. Low clouds.5 mph78%30.04 "Hg2 mi
1:00 PM28 °FLight snow. Low clouds.5 mph79%30.00 "Hg2 mi
12:00 PM28 °FLight snow. Overcast.7 mph77%29.96 "Hg2 mi
11:00 AM29 °FLight snow. Overcast.6 mph80%29.91 "Hg11 mi
10:00 AM31 °FLight snow. Low clouds.3 mph84%29.84 "Hg7 mi
Weather by CustomWeather, © 2014

See weather overviewHow to use our weather pages